Home > Time Zones > World Clock > Weather > India > Theni > Past weeks

Flag for India Weather past 2 weeks in Theni, Tamil Nadu, India

Now
82 °F

Scattered clouds.


Feels Like: 87 °F
Forecast: 74 / 95 °F
Wind: 16 mph from Southwest

Location: Coimbatore / Peelamedu

Current Time: Aug 1, 2014 at 1:37:17 PM

Latest Report: Aug 1, 2014 at 1:00 PM


Visibility: 4 mi

Pressure: 29.83 "Hg

Humidity: 70%

Dew point: 72 °F

Location of TheniLocation

Historic Weather in Theni — Graph

°F

Theni temperature yesterday

Maximum temperature yesterday: 86 °F (at 1:00 PM)
Minimum temperature yesterday: 75 °F (at 2:30 AM)
Average temperature yesterday: 82 °F

Past Weeks' High & Low Weather Summary

 TemperatureHumidityPressure
High90 °F (Jul 26, 1:30 PM)100% (Jul 26, 3:30 AM)29.95 "Hg (Jul 26, 3:30 AM)
Low72 °F (Jul 24, 2:30 AM)46% (Jul 19, 11:00 AM)29.74 "Hg (Jul 17, 3:30 PM)
Average80 °F72%29.84 "Hg
* Reported Jul 17 12:30 PM — Aug 1 12:30 PM, Theni, Weather by CustomWeather, © 2014

Note: Actual official high and low records may vary slightly from our data, if they occured in-between our weather recording intervals... More about our weather records

Advertising

Theni weather history for previous 24 hours

 ConditionsComfort  
Time TempWeatherWind HumidityBarometerVisibility
12:30 PM
Aug 1
81 °FBroken clouds.16 mph79%29.83 "Hg4 mi
12:00 PM81 °FPartly sunny.14 mph79%29.83 "Hg4 mi
11:30 AM81 °FPartly sunny.9 mph79%29.86 "Hg3 mi
11:00 AM79 °FPartly sunny.12 mph84%29.86 "Hg3 mi
10:30 AM81 °FPartly sunny.12 mph74%29.86 "Hg3 mi
10:00 AM79 °FPartly sunny.8 mph79%29.86 "Hg3 mi
9:30 AM79 °FPartly sunny.10 mph84%29.86 "Hg3 mi
9:00 AM77 °FPartly sunny.6 mph83%29.86 "Hg3 mi
5:30 PM
Jul 31
81 °FPartly sunny.12 mph74%29.77 "Hg4 mi
5:00 PM82 °FPartly sunny.15 mph66%29.77 "Hg4 mi
4:30 PM82 °FScattered clouds.12 mph66%29.77 "Hg4 mi
4:00 PM84 °FScattered clouds.12 mph62%29.77 "Hg4 mi
3:30 PM86 °FScattered clouds.18 mph55%29.77 "Hg4 mi
3:00 PM86 °FScattered clouds.12 mph59%29.77 "Hg4 mi
2:30 PM86 °FScattered clouds.14 mph59%29.80 "Hg4 mi
2:00 PM86 °FPassing clouds.14 mph55%29.80 "Hg4 mi
1:30 PM86 °FScattered clouds.16 mph52%29.80 "Hg4 mi
1:00 PM86 °FPartly sunny.16 mph52%29.80 "Hg4 mi
Weather by CustomWeather, © 2014

See weather overviewHow to use our weather pages